Find Starlink 30150

NORAD ID: 57621 Int'l Des: 2023-119 Owner: SPXS Country: US Constellation: starlink operational
LEOCIRCULAR

現在のビュー

3D地球を読み込み中...

About Starlink 30150

Starlink 30150 (NORAD 57621) is a starlink constellation satellite (v2 mini) launched Aug 11, 2023 by SPXS of US. It operates in LEO, CIRCULAR orbit with a mass of 730.00 kg.

次回通過

Passes for default location (London). Set your location on the main map for personalized predictions.

高度履歴

Loading altitude history...

軌道要素

1 57621U 23119V 26230.42569189 .00001220 00000-0 53838-4 0 9990
2 57621 43.0019 248.0291 0001212 276.3392 83.7322 15.27578773167825
Epoch: Aug 18, 2026 • Age: 13 hours

現在のステータス

高度 484.7 km
遠地点 / 近地点 N/A
速度 7.63 km/s
衛星直下点 33.22°N, 23.04°W
打ち上げ日 Aug 11, 2023
運用期間 3 years
タイプ internet

技術仕様

分類 Payload
質量 730.00 kg
乾燥質量 700.00 kg
総質量 730.00 kg
長さ 0.30 m
直径 4.10 m
スパン 29.00 m
形状 Box + pan
製造者 SPXS
バスタイプ Starlink V2M
フェーズステータス In Orbit
所有者/国 SPXS/US

Most Searched